Location: Ausservals
(47.0500°N, 11.5333°E)
Time: 13:03:39
(UTC+00:00)

Daily predictions for brighter satellites

Satellite Brightness Start Highest point End
(mag) Time Altitude Azimuth Time Altitude Azimuth Time Altitude Azimuth
CZ-4B R/B 3.3 16:31:26 10° SSE 16:37:02 80° ENE 16:42:44 10° NNW
SMAP 3.2 16:36:46 10° SSE 16:41:25 84° WSW 16:46:07 10° NNW
Cosmos 2058 Rocket 3.6 16:41:09 10° NNW 16:45:40 67° W 16:50:08 10° S
Cosmos 1455 2.1 16:43:45 10° N 16:47:37 81° E 16:51:28 10° S
Cosmos 405 4.0 16:44:58 10° NNE 16:47:56 24° ENE 16:50:53 10° SE
ARGOS 4.4 16:45:16 10° ESE 16:48:58 19° ENE 16:52:42 10° NNE
Cosmos 1626 Rocket 3.7 16:45:51 10° S 16:50:09 55° E 16:54:30 10° NNE
Cosmos 1092 Rocket 4.2 16:45:06 10° SSE 16:50:57 47° E 16:56:48 10° NNE
Cosmos 2263 Rocket 4.3 16:48:28 10° W 16:52:32 20° NW 16:56:36 10° N
Cosmos 1898 Rocket 3.6 16:48:20 10° S 16:53:27 56° ESE 16:58:33 10° NNE
Cosmos 923 Rocket 4.4 16:48:34 10° NNW 16:53:53 72° WSW 16:59:09 10° SSE
CZ-4C R/B 3.9 16:52:54 10° N 16:55:58 46° WNW 16:59:04 10° SSW
TELKOM 3 3.5 16:54:42 10° WNW 16:56:44 37° N 16:58:27 14° ENE
CZ-2C R/B 4.4 16:54:47 10° ENE 16:57:05 12° E 16:59:22 10° ESE
Cosmos 1680 Rocket 3.6 16:52:56 10° NNW 16:58:12 85° WSW 17:03:24 10° SSE
Nadezhda 4 Rocket 4.0 16:53:27 10° S 16:59:40 87° E 17:05:52 10° N
Cosmos 1328 4.1 16:58:37 10° SSE 17:02:24 44° E 17:06:11 10° NNE
CZ-4B R/B 1.7 17:01:24 10° NNE 17:04:35 43° E 17:07:39 10° S
CZ-2D R/B 3.4 17:01:43 10° SSE 17:05:25 49° ENE 17:09:08 10° N
Landsat 5 4.5 17:01:58 10° N 17:05:39 44° WNW 17:09:18 10° SW
MOS 1 Rocket 3.6 17:02:15 10° NNE 17:06:16 38° E 17:10:21 10° SSE
Meteor 2-8 Rocket 4.5 17:02:34 10° N 17:08:37 60° ENE 17:14:39 10° SSE
Cosmos-2242 3.6 17:05:42 10° N 17:09:38 34° ENE 17:13:35 10° SE
NOSS 3-1 (C) 4.3 17:04:58 10° NW 17:12:28 81° SW 17:21:12 10° SSE
COSMO-SKYMED 1 2.6 17:09:24 10° NNE 17:13:42 57° E 17:17:58 10° S
BREEZE-M DEB (TANK) 1.9 17:13:39 10° WNW 17:15:51 52° N 17:17:14 21° E
Cosmos 1937 Rocket 3.5 17:10:51 10° S 17:16:05 65° ESE 17:21:22 10° NNE
Cosmos 1758 Rocket 3.9 17:12:39 10° SSE 17:16:52 43° E 17:21:08 10° NNE
Aureole 3 4.0 17:14:25 10° NNW 17:17:21 43° W 17:20:11 10° SSW
Cosmos 2098 Rocket 4.5 17:10:27 10° SSE 17:17:35 54° E 17:24:30 10° NNE
USA 290 2.3 17:18:40 10° NNW 17:21:47 49° ENE 17:24:53 10° SE
NOSS 2-1 (C) 3.5 17:21:02 10° SW 17:24:17 52° NW 17:27:19 13° NNE
CZ-4 R/B 4.3 17:21:16 10° SSE 17:25:23 73° ENE 17:29:34 10° N
Cosmos 1833 Rocket 2.6 17:20:08 10° NNW 17:25:46 69° ENE 17:31:22 10° SE
H-2A R/B 2.2 17:22:58 10° SE 17:27:50 49° ENE 17:32:52 10° N
Cosmos 1939 Rocket 3.6 17:26:09 10° S 17:30:11 56° W 17:34:10 10° NNW
NOSS 2-1 (D) 3.8 17:27:03 10° WSW 17:30:15 45° NW 17:33:06 14° NNE
Helios 1A Rocket 3.4 17:26:37 10° SE 17:30:26 37° ENE 17:34:17 10° N
H-2A R/B 3.4 17:26:40 10° N 17:30:48 41° WNW 17:34:49 10° SW
Cosmos 2344 4.3 17:23:09 10° NW 17:32:25 81° NE 17:45:26 10° SE
Cosmos 1602 Rocket 3.8 17:29:20 10° SSW 17:33:40 72° W 17:38:05 10° N
Cosmos 389 Rocket 4.5 17:31:10 10° NNE 17:32:01 14° NNE 17:32:01 14° NNE
USA 229 DEB 4.1 17:26:37 10° NW 17:33:56 80° SW 17:41:38 10° SSE
USA 229 4.0 17:26:43 10° NW 17:34:03 81° SW 17:41:46 10° SSE
Cosmos 44 4.3 17:29:42 10° WSW 17:34:22 45° NW 17:39:22 10° NNE
Cosmos 2026 Rocket 3.9 17:28:43 10° S 17:34:51 78° E 17:41:08 10° N
CZ-3B R/B 2.1 17:32:27 10° WNW 17:35:09 88° SW 17:43:33 10° SE
Feng Yun 1-1 Rocket 4.5 17:29:57 10° S 17:35:25 75° WSW 17:41:06 10° NNW
SJ 16-02 3.5 17:33:42 10° WSW 17:37:16 24° WNW 17:40:53 10° N
Meteor 2-15 Rocket 4.5 17:33:13 10° N 17:39:19 58° ENE 17:45:21 10° SSE
YAOGAN 1 2.5 17:35:10 10° SSE 17:39:25 61° ENE 17:43:43 10° N
SJ-11-01 4.3 17:36:41 10° SSE 17:41:14 55° ENE 17:45:49 10° N
Cosmos 1689 Rocket 2.3 17:41:34 42° E 17:41:34 42° E 17:44:17 10° S
Cosmos 1553 Rocket 4.0 17:36:03 10° N 17:42:24 62° ENE 17:48:38 10° SSE
Cosmos 1844 Rocket 4.4 17:37:49 10° WSW 17:42:45 30° NW 17:47:41 10° N
Aureole 3 Rocket 2.7 17:39:51 10° NNW 17:43:06 76° W 17:47:10 10° S
COSMOS 2406 3.4 17:39:20 10° NNW 17:45:07 77° WSW 17:50:51 10° SSE
Cosmos 2082 Rocket 2.3 17:39:56 10° NNW 17:45:35 56° ENE 17:51:11 10° SE
HJ-1C 3.7 17:47:04 41° ENE 17:47:06 41° ENE 17:50:17 10° N
Cosmos 1825 Rocket 3.5 17:44:21 10° S 17:48:41 67° E 17:53:06 10° NNE
IRS-1C Rocket 4.3 17:43:42 10° S 17:48:56 76° WSW 17:54:14 10° NNW
Meteor 1-27 4.1 17:43:40 10° N 17:49:15 65° ENE 17:54:46 10° SSE
NOSS 3-1 (A) 4.3 17:42:06 10° NW 17:49:38 77° SW 17:58:20 10° SSE
X-37B 1.7 17:47:25 10° W 17:50:25 38° SSW 17:51:36 26° SSE
deb Kosmos-1763 4.1 17:48:43 10° NNW 17:52:14 50° ENE 17:52:52 44° E
ISS -2.9 17:50:12 10° WNW 17:53:24 37° N 17:53:50 35° NNE
Okean O Rocket 4.4 17:51:46 10° SW 17:55:10 21° W 17:58:33 10° NW
ATLAS 2AS CENTAUR R/B 4.4 17:51:02 10° NW 17:56:54 22° N 18:00:55 15° NE
ATLAS 5 CENTAUR R/B 4.1 17:56:57 10° NNW 17:58:58 12° N 18:00:57 10° NNE
CZ-4 R/B 1.6 17:55:07 10° S 17:59:08 71° WSW 18:03:06 10° NNW
Iridium 4 Rocket 3.9 17:55:12 10° N 18:00:33 66° W 18:05:24 10° S
ERS-2 2.2 17:58:38 13° N 18:01:48 76° WNW 18:05:25 10° SSW
CSL-04 Rocket 3.6 17:58:02 10° SSE 18:03:25 66° ENE 18:08:55 10° N
Okean-O 2.9 18:02:11 10° S 18:06:36 70° WSW 18:11:03 10° NNW
USA 234 4.1 18:05:52 25° NE 18:08:52 38° N 18:14:47 10° WNW
S3M 3.8 18:02:47 10° N 18:08:54 68° E 18:15:00 10° SSE
Ariane Rocket 4.4 18:11:25 22° NNE 18:11:25 22° NNE 18:13:44 10° N
CZ-4C R/B 4.2 18:04:55 10° NW 18:09:32 20° N 18:11:46 18° NE
Cosmos 1346 Rocket 3.1 18:07:53 10° SSW 18:11:48 66° WNW 18:15:11 14° N
Cosmos 1655 Rocket 3.9 18:05:56 10° S 18:12:00 59° E 18:18:07 10° NNE
Cosmos 2278 Rocket 2.3 18:06:51 10° SSW 18:12:32 75° WNW 18:17:11 16° NNE
Cosmos 1953 Rocket 3.4 18:10:50 10° S 18:15:10 84° E 18:17:57 22° N
CZ-2C R/B 4.5 18:10:05 10° SSW 18:15:17 43° W 18:20:45 10° NNW
SAR-Lupe-4 4.2 18:17:50 25° N 18:19:44 56° WNW 18:23:14 10° SSW
Cosmos 2292 Rocket 3.3 18:15:08 10° S 18:20:00 81° E 18:20:41 60° NNE
Cosmos 44 Rocket 3.3 18:17:55 10° SSW 18:22:47 65° ESE 18:23:19 60° E
ARGOS 3.3 18:23:19 10° S 18:28:40 74° WSW 18:34:04 10° NNW
Meteor 2-2 Rocket 4.2 18:24:29 10° N 18:30:28 69° ENE 18:34:20 23° SSE
Cosmos 1869 3.6 18:26:59 10° NNW 18:30:11 57° NNW 18:30:11 57° NNW
NOSS 2-2 (D) 4.4 18:27:13 10° NW 18:32:28 60° NE 18:33:29 53° E
CZ-2C R/B 2.6 18:33:45 17° NNE 18:38:13 80° ESE 18:43:50 10° S
Cosmos 494 Rocket 3.8 18:37:12 10° NNW 18:42:24 85° ENE 18:42:29 84° E
Cosmos 2150 Rocket 3.9 18:40:06 10° SSW 18:45:16 83° WNW 18:45:59 67° N
Cosmos 1048 Rocket 4.3 18:42:16 10° NNW 18:47:21 63° WSW 18:49:36 33° S
Cosmos 2297 4.3 18:47:27 10° SSW 18:51:23 45° S 18:51:23 45° S
Cosmos 909 Rocket 4.5 18:54:24 10° NNW 19:00:09 52° NNE 19:00:09 52° NNE
H-2A R/B 4.2 19:03:26 10° SW 19:07:32 24° W 19:11:44 10° NW
Cosmos 1125 Rocket 4.1 19:04:46 10° SSW 19:08:41 50° SW 19:08:41 50° SW
Cosmos 2266 Rocket 4.4 19:08:10 10° SSW 19:14:19 60° WNW 19:20:24 10° N
Cosmos 2082 Rocket 4.2 19:24:41 10° NW 19:29:17 26° WSW 19:33:42 11° SSW
ATLAS 2AS CENTAUR R/B 4.2 19:43:36 10° NW 19:48:21 29° N 19:48:21 29° N
USA 234 4.1 19:53:12 41° NNW 19:53:12 41° NNW 19:57:34 10° NW
CZ-4C R/B 4.2 19:53:39 10° NNW 19:56:58 27° N 19:56:58 27° N
